Lapse_Rate
6.1 6.2 6.2 6.1 6.1 6.2 6.3 6.2 6.1 6.0 5.8 5.7 5.6 5.6 5.6 5.6 5.5 5.4 5.2 5.6 5.8 5.9 6.1 6.0 5.9 5.9 5.7 5.8 5.8 5.8 5.9 5.8 5.6 5.5 5.3 5.4 5.3 5.2 5.0 5.0 5.0 5.1 5.1 5.1 5.1
6.3 6.3 6.2 6.1 6.1 6.2 6.3 6.2 6.2 6.1 5.9 5.9 5.8 5.7 5.6 5.6 5.4 5.3 5.6 5.8 5.9 6.1 6.1 5.9 5.9 5.8 5.6 5.8 5.7 5.8 5.9 5.6 5.5 5.4 5.4 5.3 5.4 5.2 5.1 5.1 4.9 4.9 4.9 5.0 4.9
6.5 6.6 6.5 6.4 6.2 6.3 6.3 6.3 6.2 6.1 6.1 5.9 5.8 5.7 5.7 5.7 5.5 5.5 5.6 5.7 5.8 5.9 6.0 5.9 5.9 5.7 5.7 5.7 5.8 5.7 5.7 5.5 5.3 5.2 5.3 5.3 5.3 5.2 5.1 5.1 5.1 5.0 4.9 4.9 4.8
6.6 6.7 6.7 6.6 6.5 6.4 6.4 6.3 6.2 6.2 6.2 6.1 6.0 5.8 5.7 5.6 5.5 5.5 5.7 5.8 5.8 5.9 6.0 6.0 5.9 5.7 5.7 5.7 5.7 5.5 5.5 5.4 5.3 5.1 5.3 5.2 5.3 5.4 5.2 5.1 5.1 5.1 5.1 4.9 4.8
6.6 6.7 6.7 6.7 6.6 6.4 6.3 6.3 6.3 6.2 6.2 6.1 6.0 5.9 5.8 5.7 5.6 5.6 5.7 5.8 5.8 5.9 6.0 6.0 5.9 5.7 5.7 5.6 5.4 5.3 5.2 5.0 5.0 5.0 5.1 5.2 5.3 5.5 5.3 5.2 5.0 5.1 5.0 4.9 4.9
6.6 6.7 6.7 6.6 6.5 6.4 6.4 6.3 6.3 6.3 6.3 6.2 6.1 6.0 5.8 5.6 5.8 5.8 5.8 5.8 5.8 5.9 6.0 5.9 5.8 5.6 5.5 5.5 5.3 5.0 4.9 4.9 4.9 5.0 5.1 5.3 5.4 5.6 5.4 5.3 5.1 5.1 5.1 5.0 5.0
6.5 6.5 6.5 6.5 6.4 6.4 6.4 6.3 6.3 6.3 6.3 6.3 6.2 6.1 5.8 6.0 6.0 6.0 5.9 6.0 5.9 5.9 5.9 5.9 5.8 5.8 5.7 5.5 5.2 5.1 5.0 5.0 5.0 5.1 5.2 5.3 5.4 5.3 5.3 5.5 5.6 5.4 5.2 5.2 5.3
6.6 6.5 6.5 6.4 6.4 6.3 6.3 6.4 6.4 6.4 6.4 6.3 6.2 6.2 6.2 6.2 6.1 6.1 6.0 6.0 6.0 6.0 5.9 5.8 5.8 5.8 5.8 5.6 5.4 5.3 5.3 5.2 5.1 5.2 5.1 4.9 5.3 5.4 5.5 5.7 5.8 5.7 5.6 5.5 5.6
6.8 6.7 6.7 6.6 6.5 6.5 6.4 6.4 6.4 6.4 6.4 6.4 6.3 6.3 6.1 6.1 6.1 6.1 6.0 6.0 6.1 6.1 6.0 5.8 5.8 5.7 5.7 5.6 5.5 5.3 5.3 5.2 5.1 5.1 5.0 4.8 5.2 5.4 5.6 5.8 5.9 5.9 5.9 5.8 5.9
6.9 6.9 6.9 6.9 6.8 6.8 6.7 6.6 6.4 6.4 6.5 6.4 6.3 6.2 6.2 6.1 6.1 6.1 6.1 6.1 6.1 6.0 6.0 5.9 5.8 5.6 5.6 5.6 5.2 5.1 5.0 5.0 5.0 5.1 5.1 5.1 5.1 4.9 5.4 5.8 6.0 6.1 6.1 6.2 6.1
7.0 7.0 7.1 7.1 7.0 7.0 6.9 6.7 6.6 6.5 6.5 6.4 6.3 6.3 6.3 6.3 6.3 6.3 6.2 6.2 6.1 6.1 6.0 6.0 5.8 5.8 5.8 5.6 5.3 5.3 5.2 4.9 4.9 4.7 4.8 4.9 5.4 5.1 5.2 5.4 5.8 6.1 6.2 6.2 6.1
7.1 7.1 7.1 7.1 7.2 7.2 7.1 6.9 6.8 6.6 6.5 6.5 6.5 6.5 6.5 6.4 6.3 6.5 6.4 6.3 6.1 6.1 6.1 6.1 6.0 5.8 5.6 5.4 5.4 5.3 5.4 5.2 4.9 4.5 4.5 5.2 5.6 5.7 5.4 5.2 5.6 5.9 6.1 6.0 5.9
7.1 7.1 7.1 7.1 7.1 7.1 7.1 7.1 6.9 6.6 6.5 6.6 6.5 6.5 6.5 6.5 6.5 6.5 6.5 6.5 6.4 6.3 6.3 6.2 6.0 5.9 5.8 5.6 5.5 5.5 5.3 5.1 4.9 5.1 5.1 5.2 5.9 5.7 5.5 5.2 5.3 5.7 5.9 5.9 5.9
6.9 7.0 7.0 7.1 7.1 7.1 7.2 7.1 7.0 6.7 6.5 6.5 6.5 6.6 6.6 6.7 6.5 6.6 6.5 6.6 6.4 6.3 6.3 6.2 6.1 6.0 5.8 5.6 5.4 5.5 5.2 5.2 5.1 4.7 4.8 5.0 4.9 5.8 5.5 5.3 5.3 5.5 5.8 6.0 6.0
6.6 6.7 6.7 6.8 6.8 6.9 7.0 7.0 6.8 6.5 6.0 6.5 6.6 6.6 6.6 6.6 6.6 6.6 6.6 6.6 6.5 6.3 6.2 6.3 6.1 6.1 5.9 5.7 5.4 5.3 5.1 5.2 4.9 4.7 4.5 5.0 4.7 6.2 5.7 5.5 5.4 5.6 6.0 6.2 6.3
6.4 6.5 6.5 6.6 6.6 6.7 6.8 6.7 6.6 6.6 6.2 6.7 6.7 6.7 6.6 6.6 6.6 6.6 6.6 6.6 6.6 6.5 6.4 6.3 6.3 6.2 5.9 5.7 5.6 5.3 5.4 5.3 4.8 4.5 3.8 5.0 5.1 6.0 5.8 5.9 5.7 5.7 5.9 6.2 6.3
6.4 6.5 6.5 6.5 6.6 6.6 6.6 6.5 6.6 6.4 6.8 6.6 6.7 6.6 6.5 6.5 6.6 6.5 6.5 6.5 6.4 6.4 6.5 6.4 6.5 6.3 6.0 5.9 5.9 5.6 5.6 5.3 4.2 3.7 3.9 4.8 4.8 6.1 5.8 6.0 5.8 5.7 5.8 6.0 6.1
6.4 6.4 6.4 6.4 6.5 6.5 6.5 6.4 6.4 6.7 6.8 6.7 6.6 6.6 6.6 6.6 6.7 6.6 6.6 6.5 6.4 6.2 6.1 6.3 6.6 6.3 6.1 6.0 5.7 5.6 5.3 5.6 4.8 3.7 3.5 4.9 4.9 6.3 6.3 6.2 5.8 5.8 5.8 5.9 5.7
6.4 6.3 6.3 6.4 6.4 6.4 6.5 6.5 6.7 6.8 6.7 6.6 6.6 6.6 6.6 6.6 6.5 6.5 6.6 6.5 6.4 6.2 6.0 5.7 6.5 6.5 6.2 6.2 5.9 5.4 5.4 5.3 5.0 4.3 3.2 4.5 5.5 6.3 6.7 6.5 6.4 6.0 5.9 5.7 5.7
6.3 6.4 6.4 6.3 6.3 6.3 6.3 6.4 6.6 6.7 6.7 6.6 6.6 6.6 6.6 6.7 6.5 6.4 6.6 6.4 6.3 6.1 6.0 5.8 5.6 6.6 6.3 6.1 6.0 5.8 5.6 5.4 5.3 4.8 4.3 4.2 5.1 6.1 6.5 6.3 6.3 5.9 5.7 5.7 5.8
6.1 6.2 6.2 6.1 6.1 6.2 6.3 6.4 6.5 6.6 6.6 6.5 6.6 6.5 6.5 6.5 6.5 6.3 6.5 6.4 6.4 6.2 6.1 5.7 5.3 6.2 6.2 6.3 5.7 5.4 5.5 5.5 5.5 5.5 4.7 3.5 4.8 6.1 6.6 6.5 6.2 5.9 5.8 5.9 5.8
5.8 5.9 6.1 6.3 6.2 6.2 6.3 6.4 6.5 6.5 6.5 6.4 6.5 6.6 6.6 6.5 6.3 6.3 6.5 6.4 6.4 6.2 5.9 5.8 5.4 5.2 6.0 6.3 6.1 5.4 5.8 6.1 5.6 5.5 5.3 4.6 4.3 5.8 6.2 6.6 6.6 6.3 6.0 6.1 6.0
5.5 5.6 6.0 6.1 6.1 6.3 6.2 6.2 6.2 6.3 6.3 6.2 6.3 6.4 6.4 6.3 6.1 6.1 6.4 6.6 6.4 6.4 6.0 5.7 5.1 5.3 5.8 6.0 6.0 5.5 5.7 6.2 5.9 5.5 5.1 5.5 5.5 6.0 6.2 6.5 6.3 6.2 6.0 5.8 5.7
5.4 5.3 5.7 6.0 6.0 5.9 5.9 6.0 6.0 6.2 6.1 6.3 6.3 6.5 6.4 6.3 6.4 6.0 6.2 6.2 6.4 6.3 6.2 5.7 5.1 6.1 5.8 6.4 6.3 5.5 5.5 5.6 5.5 5.1 5.5 5.2 6.1 6.2 6.1 6.1 6.0 5.8 5.9 5.6 5.6
5.2 5.2 5.4 5.7 5.8 5.7 5.7 5.7 6.1 6.0 5.9 6.0 6.0 6.5 6.1 5.9 6.3 6.3 6.0 5.9 6.0 5.9 5.6 5.5 5.1 5.8 5.7 6.0 5.9 5.5 5.3 5.8 5.3 6.0 5.2 6.6 6.1 7.4 5.7 5.5 5.5 5.7 5.7 5.7 5.8
5.0 5.2 5.1 5.1 5.4 5.4 5.5 5.6 5.8 5.8 5.5 5.7 5.9 6.0 5.8 5.8 6.0 5.0 5.3 5.3 5.5 5.5 5.6 5.6 5.6 5.7 5.6 6.0 5.8 5.0 5.5 6.6 6.6 6.3 5.6 6.1 6.0 7.2 6.6 6.4 6.3 6.0 5.9 5.7 5.7
5.1 5.2 4.9 4.8 5.1 5.3 5.5 5.5 5.6 5.6 5.5 5.6 5.6 5.2 5.2 5.3 5.3 5.4 5.4 5.1 5.3 5.2 5.5 5.3 5.4 5.3 5.2 5.8 5.5 4.8 6.6 6.9 6.9 6.8 7.1 6.8 7.5 6.8 6.5 6.5 6.2 5.8 5.7 5.6 5.4
Wind_Speed
17 17 16 15 14 11 8 6 4 4 4 4 5 6 9 13 7 5 8 6 9 19 13 6 3 6 5 4 5 2 4 2 4 5 1 1 2 2 1 4 3 3 2 2 3
18 18 15 14 13 10 8 7 5 4 4 4 4 6 8 9 2 6 2 18 17 14 5 6 6 6 4 5 4 5 4 4 2 1 0 2 1 4 2 2 0 1 2 3 4
17 16 14 13 12 11 9 8 6 5 4 4 5 7 8 4 3 4 14 21 17 12 2 1 2 4 6 4 5 2 3 3 1 0 3 2 1 3 3 3 5 6 5 3 3
18 17 15 14 13 12 10 8 7 6 5 5 6 9 7 0 2 4 19 18 13 15 4 6 6 4 4 4 4 5 2 2 3 1 2 2 3 1 5 3 1 5 6 4 2
19 17 15 15 13 11 9 8 8 7 7 8 10 9 2 6 3 7 17 14 8 5 8 4 7 3 4 2 3 4 1 1 2 1 1 3 3 3 5 4 7 7 6 5 2
21 18 17 16 14 12 9 7 6 7 8 10 12 3 4 6 3 10 13 6 6 5 6 8 3 2 5 3 3 0 1 1 1 1 1 2 2 1 1 7 6 6 5 4 2
21 20 18 16 13 11 9 7 7 7 9 9 11 3 7 1 3 10 9 3 3 2 4 3 1 5 1 2 4 1 2 4 2 1 0 1 2 5 3 7 7 6 5 4 2
22 21 19 17 14 12 9 7 6 7 10 9 7 3 2 2 5 4 7 3 6 3 3 3 3 6 4 1 6 5 4 5 2 1 2 2 7 3 6 8 8 8 6 6 4
22 21 20 17 16 13 10 7 5 10 6 7 4 4 2 6 5 5 5 4 5 3 5 3 6 4 6 3 5 7 3 3 8 2 2 3 7 3 4 7 8 7 7 7 6
23 22 20 19 17 14 10 4 6 4 4 2 2 4 6 4 5 4 4 3 5 2 4 8 6 4 5 6 1 4 4 4 5 4 2 4 14 10 6 8 10 8 7 7 7
24 23 21 19 16 13 5 3 5 4 9 4 1 2 4 7 2 5 3 3 3 8 4 5 7 2 3 1 2 3 3 5 5 4 4 5 9 14 6 5 8 8 8 8 8
24 24 23 20 10 8 5 5 3 1 4 0 1 2 1 1 5 8 4 5 6 3 4 5 2 3 3 2 2 4 3 5 6 3 2 6 12 10 4 4 5 8 8 9 4
24 24 24 21 4 7 4 3 2 2 3 2 1 1 3 3 1 6 4 2 4 3 3 4 1 2 1 2 6 3 4 3 4 6 3 6 6 3 2 3 2 4 5 5 9
25 23 22 17 6 2 3 4 2 1 4 4 3 3 2 1 2 2 2 2 4 1 0 1 1 0 1 2 2 5 2 3 6 3 3 3 5 4 3 5 4 6 7 8 7
26 23 17 13 4 3 3 4 2 2 3 1 4 1 3 4 3 3 2 4 2 1 1 2 2 2 1 2 4 8 3 4 1 1 3 1 1 6 3 5 7 8 9 9 8
25 23 10 5 3 0 3 3 2 5 5 1 1 4 2 4 5 7 5 6 1 1 3 3 2 2 2 2 2 5 3 2 3 2 2 1 3 5 4 6 2 2 5 7 8
25 15 5 1 1 1 1 3 5 4 2 2 2 3 1 3 4 6 5 6 3 4 6 6 2 1 0 3 1 7 5 4 5 4 4 2 2 9 5 5 4 4 4 2 5
23 7 5 3 1 1 2 5 1 1 3 1 1 2 1 3 1 4 2 3 1 3 3 3 6 1 1 1 0 3 3 4 5 3 5 4 6 5 4 2 2 3 5 3 4
10 3 2 5 3 2 4 3 6 5 1 2 1 1 2 1 1 3 1 3 4 4 2 1 5 2 1 1 3 1 1 1 1 1 2 4 7 9 3 5 4 6 3 5 6
2 2 2 5 3 4 4 5 3 2 3 1 4 2 3 2 2 3 1 3 2 3 2 3 5 0 1 2 3 2 4 2 2 4 6 4 6 6 5 4 5 4 2 4 4
3 3 2 3 2 4 3 6 4 2 1 2 2 2 5 2 1 2 3 3 4 4 2 4 3 4 1 5 6 1 1 2 2 4 4 4 6 6 6 7 7 6 3 3 5
2 3 3 3 3 1 2 3 1 2 1 3 2 6 6 4 3 4 5 6 7 7 5 4 4 5 10 2 1 2 6 6 4 5 5 2 12 2 6 5 7 6 5 2 3
2 3 2 2 1 2 3 3 3 3 3 4 3 5 3 4 3 6 4 2 8 8 8 6 3 5 7 2 1 5 6 6 2 2 10 6 8 1 4 4 4 7 4 2 4
2 3 3 3 1 1 2 4 3 2 2 4 4 3 3 4 5 3 3 3 6 6 6 7 5 8 10 11 3 6 7 8 11 4 11 16 29 11 5 8 7 6 4 3 4
2 3 2 3 2 1 0 2 2 3 3 3 2 7 7 5 3 5 4 4 3 4 4 5 6 7 16 18 14 19 17 17 17 25 15 30 25 26 7 8 4 5 3 2 3
2 2 0 2 2 2 4 4 5 4 6 5 5 2 7 6 8 4 5 5 7 1 6 3 6 3 14 12 16 20 18 21 23 27 19 29 31 23 4 6 5 5 3 1 0
1 1 0 1 2 3 5 6 4 2 5 3 7 2 3 13 12 11 6 4 5 7 9 6 3 2 11 2 6 12 14 18 8 7 9 16 21 7 6 6 5 4 2 1 0
Wind_Direction
5 3 1 355 356 353 348 351 336 327 320 322 324 323 332 339 342 29 38 291 311 318 327 303 21 8 41 59 40 94 65 131 180 170 214 137 109 45 112 92 55 21 84 110 5
4 1 2 3 4 4 6 7 0 4 354 345 328 319 325 336 31 41 274 341 335 339 4 25 12 16 47 20 22 65 82 194 182 198 123 124 121 158 150 96 46 110 122 117 39
7 5 3 4 8 12 16 27 28 31 29 2 333 321 320 324 67 322 342 343 347 347 171 82 61 56 55 22 356 52 132 172 180 146 138 121 138 159 143 242 204 207 174 143 37
6 6 4 5 6 9 14 24 29 31 17 352 330 318 317 206 48 285 341 343 356 24 58 34 29 52 66 53 340 89 93 178 157 113 131 162 129 232 182 234 181 138 131 121 78
4 5 1 359 359 2 5 11 14 10 352 340 339 336 79 40 346 317 338 354 17 26 46 45 51 75 84 74 39 71 196 47 110 142 157 123 251 235 233 138 113 111 105 133 140
4 4 1 358 355 355 356 1 356 351 345 343 345 356 78 64 288 330 343 6 31 35 20 37 77 80 92 59 74 95 164 330 180 252 272 215 250 51 278 140 139 139 157 163 139
5 360 357 354 351 349 346 346 341 339 338 343 351 64 64 167 335 339 8 9 14 36 51 29 32 78 70 58 339 66 329 342 36 286 229 89 254 228 176 162 169 188 182 177 195
3 0 356 353 350 347 339 329 327 332 331 338 347 67 87 310 328 12 345 352 8 36 78 31 63 94 52 327 18 31 47 10 331 23 347 64 271 228 167 168 200 198 193 206 220
2 1 356 351 351 349 333 323 329 325 316 335 37 77 348 330 27 322 22 347 314 9 35 66 63 71 21 52 13 13 328 328 318 225 256 179 266 234 153 196 218 208 203 211 226
360 357 353 352 354 351 331 310 327 11 356 32 58 41 6 311 306 340 335 17 36 354 20 36 48 61 28 41 329 301 329 302 255 300 286 267 265 275 232 202 224 212 213 217 230
357 353 352 352 359 355 15 20 21 352 38 96 183 166 302 294 282 350 6 9 29 51 40 5 62 24 285 249 265 248 241 256 260 278 300 250 269 279 284 232 231 223 215 222 229
354 351 349 349 6 16 63 76 71 155 70 275 273 317 272 337 8 337 14 62 49 50 340 27 64 247 252 218 270 259 275 272 286 262 248 302 281 270 245 256 216 219 223 226 208
353 351 347 347 355 39 72 104 328 321 99 324 9 357 306 29 58 316 32 71 75 60 20 132 201 303 119 333 355 281 221 260 257 309 238 315 289 259 237 281 262 238 224 224 214
350 350 349 348 48 315 43 331 345 324 67 305 343 351 342 56 33 320 18 86 27 115 161 206 288 161 195 255 113 303 209 285 294 15 288 26 286 282 242 268 249 253 235 240 229
347 346 353 37 141 54 301 332 341 48 11 305 314 322 339 78 295 358 15 37 86 318 93 276 315 354 335 233 160 242 345 280 281 180 359 286 63 268 6 264 250 238 237 238 227
345 342 348 23 52 287 329 359 44 43 262 349 316 345 23 13 346 321 27 41 103 104 2 264 314 191 252 296 204 316 333 76 59 91 355 346 115 276 206 211 196 234 237 238 225
343 351 31 52 352 324 47 40 34 134 15 314 337 30 349 319 350 30 15 12 53 14 6 334 247 300 104 328 62 21 18 343 352 3 230 295 278 249 243 234 191 223 260 264 218
342 6 25 52 8 43 47 50 189 247 231 15 340 320 293 0 338 351 40 345 137 74 75 30 331 174 155 146 321 32 109 143 289 283 284 312 239 250 210 290 236 276 279 312 258
341 3 32 350 8 34 70 67 218 201 150 194 305 348 307 301 247 356 221 217 210 171 110 34 277 283 62 95 100 140 210 151 255 260 345 247 284 291 235 259 234 251 321 353 327
34 16 8 346 356 50 76 236 228 208 147 141 209 183 247 263 333 0 272 196 189 166 129 174 303 227 4 82 35 161 164 11 35 309 293 272 275 245 292 236 212 230 307 352 356
31 22 299 12 47 51 188 230 243 236 136 172 233 227 227 290 222 263 258 266 185 167 96 140 138 284 313 195 182 116 246 86 163 176 227 290 257 211 228 213 198 181 122 61 3
20 343 333 4 37 30 214 213 282 199 133 234 216 206 196 184 228 236 234 231 173 152 167 196 154 260 237 167 132 178 205 172 168 228 233 207 269 185 246 234 164 164 146 64 11
21 266 333 73 247 284 288 287 244 177 216 189 239 207 183 211 236 203 222 253 170 165 171 185 211 309 319 33 38 208 204 205 233 324 233 243 263 60 84 157 182 167 146 47 7
39 336 324 52 51 166 312 265 278 230 235 193 210 143 162 237 226 261 249 241 195 207 170 154 193 199 245 254 172 216 208 203 210 222 261 244 270 234 204 224 213 186 120 88 31
75 256 200 296 333 339 197 295 253 270 228 207 252 218 185 219 210 229 238 294 215 229 170 177 237 228 245 258 264 264 257 248 230 244 242 262 265 270 247 242 185 145 149 100 44
272 161 353 250 257 202 190 237 217 250 168 240 218 224 195 221 201 216 189 206 225 126 179 192 255 224 277 234 241 266 257 252 248 255 252 254 268 278 108 115 132 164 170 160 18
193 273 152 215 204 143 223 214 230 184 235 227 212 178 225 237 241 245 218 229 225 180 200 165 218 214 271 98 314 273 241 232 224 226 217 238 252 198 169 155 166 177 185 189 254